Weather History for VIJP - December, 2013

Change the Weather History Date:

Friday, December 27, 2013

  Actual Average Record
Temperature  
Mean Temperature 58 °F -  
Max Temperature 66 °F - - ()
Min Temperature 51 °F - - ()
Degree Days  
Heating Degree Days 6    
Growing Degree Days 8 (Base 50)    
Moisture  
Dew Point 34 °F    
Average Humidity 38    
Maximum Humidity 62    
Minimum Humidity 17    
Precipitation  
Precipitation 0.00 in - - ()
Sea Level Pressure  
Sea Level Pressure 30.06 in    
Wind  
Wind Speed 5 mph ()    
Max Wind Speed 13 mph    
Max Gust Speed -    
Visibility 1.9 miles    
Events      
T = Trace of Precipitation, MM = Missing Value Source: Averaged Metar Reports

Daily Weather History Graph

Daily Weather History Graph

Search for Another Location

Airport or City:

Trip Planner

Search our weather history database for the weather conditions in past years. The results will help you decide how hot, cold, wet, or windy it might be!

Date:

Astronomy

Dec. 27, 2013 Rise Set
Actual Time 7:13 AM IST 5:41 PM IST
Civil Twilight 6:48 AM IST 6:07 PM IST
Nautical Twilight 6:19 AM IST 6:36 PM IST
Astronomical Twilight 5:51 AM IST 7:04 PM IST
Moon 1:36 AM IST (12/27) 1:17 PM IST (12/27)
Length of Visible Light 11h 18m
Length of Day
10h 27m
Waning Crescent, 33% of the Moon is Illuminated
Dec 27
Waning Crescent
Jan 1
New
Jan 8
First Quarter
Jan 16
Full
Jan 24
Last Quarter

Hourly Weather History & Observations

Time (IST) Temp. Dew Point Humidity Pressure Visibility Wind Dir Wind Speed Gust Speed Precip Events Conditions
12:00 AM 59.0 °F 37.4 °F 45% 30.09 in 1.6 mi East 4.6 mph - N/A   Haze
1:00 AM 55.4 °F 37.4 °F 51% 30.06 in 1.6 mi East 5.8 mph - N/A   Haze
2:00 AM 55.4 °F 35.6 °F 47% 30.04 in 1.6 mi East 5.8 mph - N/A   Haze
2:30 AM 56 °F 35 °F 33% 30.04 in 1 mi East 4.6 mph - -   Haze
3:00 AM 57.2 °F 35.6 °F 44% 30.04 in 1.6 mi East 6.9 mph - N/A   Haze
4:00 AM 57.2 °F 33.8 °F 41% 30.04 in 1.6 mi East 8.1 mph - N/A   Haze
5:00 AM 55.4 °F 35.6 °F 47% 30.04 in 1.6 mi East 6.9 mph - N/A   Haze
5:30 AM 55 °F 36 °F 36% 30.03 in 1 mi ENE 4.6 mph - -   Haze
6:00 AM 55.4 °F 35.6 °F 47% 30.04 in 1.6 mi ENE 5.8 mph - N/A   Haze
7:00 AM 57.2 °F 33.8 °F 41% 30.06 in 1.6 mi East 4.6 mph - N/A   Haze
8:00 AM 57.2 °F 33.8 °F 41% 30.09 in 1.6 mi ENE 6.9 mph - N/A   Haze
8:30 AM 57 °F 34 °F 30% 30.09 in 1 mi East 4.6 mph - -   Haze
9:00 AM 59.0 °F 35.6 °F 42% 30.12 in 1.6 mi East 9.2 mph - N/A   Haze
10:00 AM 60.8 °F 35.6 °F 39% 30.12 in 1.9 mi East 9.2 mph - N/A   Haze
11:00 AM 62.6 °F 28.4 °F 27% 30.12 in 2.5 mi East 12.7 mph - N/A   Haze
11:30 AM 63 °F 29 °F 17% 30.10 in 2 mi ENE 9.2 mph - -   Haze
12:00 PM 64.4 °F 30.2 °F 28% 30.12 in 3.1 mi East 10.4 mph - N/A   Haze
1:00 PM 62.6 °F 33.8 °F 34% 30.09 in 3.1 mi ESE 9.2 mph - N/A   Haze
2:00 PM 64.4 °F 32.0 °F 30% 30.04 in 3.1 mi ENE 8.1 mph - N/A   Haze
2:30 PM 65 °F 32 °F 18% 30.03 in 2 mi East 8.1 mph - -   Haze
3:00 PM 64.4 °F 32.0 °F 30% 30.04 in 3.1 mi East 8.1 mph - N/A   Haze
4:00 PM 64.4 °F 30.2 °F 28% 30.04 in 3.1 mi East 6.9 mph - N/A   Haze
5:00 PM 62.6 °F 28.4 °F 27% 30.04 in 2.5 mi ESE 8.1 mph - N/A   Haze
5:30 PM 62 °F 30 °F 18% 29.99 in 2 mi ESE 5.8 mph - -   Haze
6:00 PM 59.0 °F 32.0 °F 36% 30.04 in 2.5 mi East 3.5 mph - N/A   Haze
7:00 PM 59.0 °F 33.8 °F 39% 30.06 in 1.9 mi East 4.6 mph - N/A   Haze
8:00 PM 55.4 °F 35.6 °F 47% 30.06 in 1.6 mi Variable 1.2 mph - N/A   Haze
8:30 PM 55 °F 35 °F 35% 30.06 in 1 mi Calm Calm - -   Haze
9:00 PM 53.6 °F 35.6 °F 51% 30.06 in 1.6 mi Variable 3.5 mph - N/A   Haze
10:00 PM 51.8 °F 37.4 °F 58% 30.09 in 1.6 mi Calm Calm - N/A   Smoke
11:00 PM 51.8 °F 39.2 °F 62% 30.09 in 1.6 mi NNE 4.6 mph - N/A   Smoke
11:30 PM 53 °F 39 °F 47% 30.10 in 1 mi Calm Calm - -   Smoke